GEFSSGP_850_meantemp_234.txt.gz
Temperature
21 21 21 20 19 17 20 20 21 22 22 22 22 22 21 21 21 21 21 21 21 20 20 20 20 20 19 19 19 19 19 19 19 19 19 19 19 19 18 18 18 18 18 18 18 18 18 17 17
21 21 20 20 18 19 20 21 21 21 22 22 22 21 21 20 20 21 21 21 21 20 20 20 20 19 19 19 19 19 19 19 19 19 19 19 19 19 18 18 18 18 18 18 18 17 18 17 17
21 21 20 17 18 19 21 21 21 22 22 22 21 21 21 20 20 21 21 21 20 20 20 20 20 19 19 19 19 19 19 19 19 19 19 19 18 18 18 18 18 18 18 18 17 17 17 17 17
21 21 20 17 20 20 20 21 21 22 22 22 21 20 20 20 21 21 21 20 20 20 20 20 19 19 19 19 19 19 19 19 18 18 18 18 18 18 18 18 18 18 18 17 17 17 17 17 17
21 21 18 18 19 20 20 21 22 21 22 21 21 20 20 20 21 21 21 20 20 20 20 19 19 19 19 19 19 18 18 18 18 18 18 18 18 18 18 18 17 17 17 17 17 17 17 17 17
21 18 17 18 20 21 21 22 22 22 21 21 20 20 20 20 21 21 20 20 20 20 19 19 19 19 19 18 18 18 18 18 18 18 17 17 17 17 17 17 17 17 17 17 17 17 17 17 17
20 17 18 19 20 21 22 23 22 21 21 21 21 19 19 20 20 20 20 20 20 19 19 19 19 19 18 18 18 18 18 18 17 17 17 17 17 17 17 17 17 17 17 17 17 17 17 17 17
21 17 19 19 20 21 22 23 23 22 22 22 21 20 19 20 20 20 20 19 19 19 19 19 19 18 18 18 18 18 18 17 17 17 17 17 17 17 17 17 16 16 16 17 17 17 16 16 16
21 17 18 19 20 21 22 22 22 22 22 21 21 21 21 20 20 19 19 19 19 19 18 18 18 18 18 18 18 18 17 17 17 17 17 17 16 16 16 16 16 16 16 16 16 16 16 16 16
20 17 19 20 21 21 22 22 22 21 21 20 20 21 21 20 20 19 19 19 19 19 18 18 18 18 18 18 18 18 17 17 17 17 17 16 16 16 16 16 16 16 16 16 16 16 16 16 16
19 19 20 21 22 22 21 22 22 21 20 21 21 20 20 20 19 19 19 19 19 19 18 18 18 18 18 18 18 18 17 17 17 16 16 16 16 16 16 16 16 16 16 16 16 16 16 16 16
19 19 21 22 22 22 22 22 21 21 22 22 22 21 20 20 19 19 19 19 19 19 18 18 18 18 18 18 18 17 17 17 16 16 16 16 16 16 16 16 16 16 16 16 16 16 16 16 16
20 20 22 22 23 22 22 21 21 21 22 22 21 20 20 20 19 19 19 19 19 19 18 18 18 18 18 17 17 17 17 16 16 16 16 16 16 16 16 16 16 16 15 15 15 15 15 15 15
20 21 21 22 22 22 21 21 21 20 21 21 20 20 20 20 19 19 19 19 19 19 18 18 18 18 17 17 17 17 17 16 16 16 16 16 16 15 15 15 15 15 15 15 15 15 15 15 15
21 20 20 21 21 21 21 20 20 21 21 20 20 19 19 19 19 19 19 19 19 19 18 18 17 17 17 17 17 16 16 16 16 16 15 15 15 15 15 15 15 15 15 15 15 15 15 15 15
20 20 20 21 21 21 21 20 20 21 20 19 19 19 19 19 19 19 19 19 18 18 18 17 17 17 17 16 16 16 16 16 16 15 15 15 15 15 15 15 15 15 15 15 15 15 15 15 15
19 19 20 21 21 21 20 20 20 20 19 19 18 18 18 18 18 18 18 18 18 18 17 17 17 17 16 16 16 16 16 16 15 15 15 15 15 15 15 15 15 14 15 15 14 14 14 14 14
19 20 20 20 20 20 20 19 19 19 19 18 18 18 18 18 18 18 18 18 18 17 17 17 17 16 16 16 16 16 16 15 15 15 15 15 15 15 14 14 14 14 14 14 14 14 14 14 14
20 20 20 20 20 20 19 19 19 18 18 18 18 18 18 18 18 18 18 18 17 17 17 17 16 16 16 16 15 15 15 15 15 15 15 15 14 14 14 14 14 14 14 14 14 14 14 14 14
20 20 20 20 20 20 19 19 18 18 18 18 18 18 18 18 18 18 18 17 17 17 17 16 16 16 15 15 15 15 15 15 15 15 15 14 14 14 14 14 14 14 14 14 14 14 14 14 14
20 20 20 20 20 19 19 19 18 18 18 18 18 18 18 18 18 18 18 17 17 17 17 16 16 16 15 15 15 15 15 15 15 14 14 14 14 14 14 14 14 13 13 14 14 14 13 13 13
20 20 20 20 19 18 19 18 18 17 17 17 17 17 17 17 18 18 17 17 17 16 16 16 16 15 15 15 15 15 14 14 15 14 14 14 14 14 14 13 13 13 13 13 13 13 13 13 13
21 21 20 19 18 17 18 17 17 17 17 16 16 17 17 17 17 17 17 17 17 16 16 16 15 15 15 15 15 14 14 14 14 14 14 14 14 13 13 13 13 13 13 13 13 13 13 13 13
21 19 18 16 16 17 18 17 17 16 17 17 16 17 17 17 17 17 17 17 16 16 16 15 15 15 15 14 14 14 14 14 14 14 14 14 13 13 13 13 13 13 13 13 13 13 13 13 13
20 18 18 18 17 17 17 17 17 17 17 17 16 17 17 17 17 17 17 16 16 16 16 15 15 15 14 14 14 14 14 14 14 14 14 13 13 13 13 13 13 13 13 13 13 13 13 13 13
19 19 18 18 17 17 17 17 17 17 17 17 17 17 17 17 17 17 17 16 16 16 16 15 15 15 14 14 14 14 14 14 14 13 13 13 13 13 13 13 13 13 13 13 13 13 12 12 12
19 18 18 16 17 17 16 17 17 17 17 16 16 16 16 17 17 17 17 16 16 16 16 15 15 15 14 14 14 14 14 14 13 13 13 13 13 13 13 13 13 13 12 12 13 12 12 12 12
19 17 15 16 17 17 18 17 17 17 17 16 15 15 16 17 17 17 17 16 16 16 16 15 15 15 14 14 14 14 14 14 13 13 13 13 13 13 13 13 13 12 12 12 12 12 12 12 12
19 18 16 15 16 16 17 17 17 17 16 15 15 16 16 17 17 17 17 16 16 16 16 15 15 14 14 14 14 14 14 13 13 13 13 13 13 13 13 13 12 12 12 12 12 12 12 12 12
19 18 16 17 16 15 16 16 17 16 16 16 16 16 17 17 17 17 17 16 16 16 16 15 15 14 14 14 14 14 14 13 13 13 13 13 13 13 13 12 12 12 12 12 12 12 12 12 12

GEFSSGP_850_meantemp_240.txt.gz
Temperature
21 21 20 21 27 29 29 29 29 28 28 27 26 27 27 27 26 25 21 20 20 20 19 20 20 20 19 19 19 19 19 19 19 19 19 19 19 19 19 18 18 18 18 18 18 18 18 18 18
21 21 21 25 29 29 29 29 28 28 27 26 26 26 26 25 23 22 21 20 20 20 19 19 20 19 19 19 19 19 19 19 19 19 19 19 19 19 18 18 18 18 18 18 18 18 18 18 18
20 21 24 28 29 29 29 29 28 28 26 26 26 25 25 24 22 21 20 20 20 20 19 19 19 19 19 19 19 19 19 19 19 19 18 18 18 18 18 18 18 18 18 18 18 18 18 18 18
21 23 26 29 29 29 29 28 28 27 26 26 26 25 23 22 21 21 20 20 20 20 19 19 19 19 19 19 19 19 19 19 19 18 18 18 18 18 18 18 18 18 18 18 18 18 18 18 17
22 26 28 29 28 29 29 28 27 28 27 26 26 25 23 21 20 20 20 20 20 20 19 19 19 19 19 19 19 19 19 18 18 18 18 18 18 18 17 17 17 17 18 18 17 17 17 17 17
25 28 28 28 28 28 28 27 27 28 27 26 25 25 23 21 20 20 20 20 20 19 19 19 19 19 19 19 19 18 18 18 18 18 18 18 18 17 17 17 17 17 17 17 17 17 17 17 17
26 28 28 29 28 28 28 27 27 27 27 26 25 26 23 21 20 20 20 20 19 19 19 18 19 19 18 18 18 18 18 18 18 17 17 17 17 17 17 17 17 17 17 17 17 17 17 17 17
25 28 28 28 28 28 28 27 27 27 26 25 25 26 24 21 20 19 19 19 19 19 18 18 18 18 18 18 18 18 18 18 17 17 17 17 17 17 17 16 17 17 17 17 17 17 17 17 17
25 27 28 28 28 28 27 27 26 25 25 24 24 24 23 20 20 19 19 19 19 18 18 18 18 18 17 17 17 17 17 17 17 17 17 17 16 16 16 16 16 16 16 16 16 16 16 17 17
26 27 28 29 29 28 27 27 26 26 26 25 23 22 21 20 20 20 20 19 19 18 18 18 18 18 17 17 17 17 17 17 16 16 16 16 16 16 16 16 16 16 16 16 16 16 16 16 16
27 28 28 28 27 27 27 27 26 27 27 26 24 22 21 20 20 20 20 19 19 18 18 18 18 17 17 17 17 17 16 16 16 16 16 16 16 16 16 16 16 16 16 16 16 16 16 16 16
27 27 27 27 27 27 27 27 26 26 26 25 24 22 21 21 21 20 20 19 19 18 18 18 17 17 17 17 17 17 16 16 16 16 16 16 16 16 16 16 15 15 16 15 15 15 15 15 15
27 27 26 26 26 26 26 26 26 25 25 24 23 22 21 21 21 20 20 19 19 18 18 17 17 17 17 17 17 17 16 16 16 16 16 16 15 15 15 15 15 15 15 15 15 15 15 15 15
27 27 26 26 26 26 26 26 26 25 24 23 23 22 21 21 20 20 19 19 18 18 18 17 17 17 17 17 17 17 16 16 16 16 16 16 15 15 15 15 15 15 15 15 15 15 15 15 15
26 27 27 27 27 27 27 27 27 25 24 23 23 22 21 21 20 20 19 19 18 18 17 17 17 17 17 17 16 16 16 16 16 16 16 15 15 15 15 15 15 15 15 15 15 15 15 15 15
27 27 27 28 28 27 27 27 27 25 24 24 23 22 21 20 20 19 19 18 18 18 17 17 17 16 16 16 16 16 16 16 16 15 15 15 15 15 15 15 15 15 14 14 14 14 15 15 15
28 28 28 28 28 27 27 27 27 25 24 24 23 22 21 21 20 19 19 18 18 18 17 17 17 16 16 16 16 16 15 15 15 15 15 15 15 15 15 14 15 14 14 14 14 14 14 14 14
27 28 28 28 28 27 27 27 26 25 24 24 24 23 22 21 20 19 18 18 18 17 17 17 16 16 16 16 15 15 15 15 15 15 15 15 15 14 14 14 14 14 14 14 14 14 14 14 14
27 27 27 28 28 27 27 26 26 26 25 24 24 23 22 21 20 19 18 18 17 17 17 16 16 16 16 15 15 15 15 15 15 15 15 15 14 14 14 14 14 14 14 14 13 14 14 14 14
27 27 27 27 27 27 27 26 27 26 25 24 24 23 22 21 20 19 18 17 17 17 17 16 16 16 15 15 15 15 15 15 15 15 15 14 14 14 14 14 14 14 14 13 13 13 14 14 14
27 27 27 27 27 27 26 26 26 26 25 24 23 23 22 21 20 19 18 17 17 17 16 16 16 16 15 15 15 15 15 15 15 15 14 14 14 14 14 14 14 14 13 13 13 13 13 13 14
26 28 27 27 26 27 26 26 26 26 25 24 23 23 22 21 20 19 18 18 17 17 16 16 16 15 15 15 14 14 14 14 15 14 14 14 14 14 14 14 13 13 13 13 13 13 13 13 14
27 27 27 27 26 26 27 26 27 26 25 25 24 23 22 21 20 19 19 18 17 17 16 16 15 15 15 15 14 14 14 14 14 14 14 14 14 13 13 13 13 13 13 13 13 13 13 13 13
27 27 26 26 27 25 26 26 26 27 26 26 24 23 22 21 20 19 18 18 17 16 16 16 15 15 15 15 14 14 14 14 14 14 14 14 14 13 13 13 13 13 13 13 13 13 13 13 13
26 26 25 25 26 26 26 26 26 27 26 25 24 23 22 20 20 19 18 18 17 16 16 15 15 15 15 14 14 14 14 14 14 14 14 14 13 13 13 13 13 13 13 13 13 13 13 12 12
26 26 25 25 26 27 26 26 27 26 25 24 23 22 21 20 20 19 18 17 17 16 16 15 15 15 14 14 14 14 14 14 14 14 14 13 13 13 13 13 13 13 13 13 13 13 13 12 12
26 27 27 26 26 26 26 26 26 25 24 24 23 22 21 20 19 19 18 17 17 16 15 15 15 15 14 14 14 14 14 14 14 14 13 13 13 13 13 13 13 13 13 12 13 13 12 12 12
27 27 26 26 24 25 26 26 26 25 25 24 23 22 21 20 19 19 18 17 16 16 15 15 15 14 14 14 14 14 14 14 14 13 13 13 13 13 13 13 13 12 12 12 12 13 13 12 12
26 26 26 26 26 25 25 26 27 26 25 24 23 22 21 20 19 18 18 17 16 16 15 15 14 14 14 14 14 13 13 13 13 13 13 13 13 13 13 13 12 12 12 12 12 12 12 12 12
26 26 26 25 25 25 25 26 25 25 24 24 23 22 21 20 19 18 18 17 17 16 15 15 15 14 14 14 14 13 13 13 13 13 13 13 13 13 13 12 12 12 13 12 12 12 12 12 12

GEFSSGP_850_meantemp_246.txt.gz
Temperature
23 23 22 23 26 27 28 30 31 31 31 30 30 29 28 28 27 24 24 24 23 22 22 21 21 21 20 20 20 19 19 19 19 19 19 19 19 19 19 18 18 18 18 18 18 18 18 18 18
23 22 23 26 27 27 28 30 30 31 30 30 29 29 28 27 26 24 24 23 23 22 21 21 21 21 20 20 19 19 19 19 19 19 19 19 19 19 19 18 18 18 18 18 18 18 18 18 18
23 23 25 28 28 28 28 30 31 31 30 29 29 28 28 26 25 24 23 23 23 22 21 21 21 20 20 20 19 19 19 19 19 19 19 19 19 18 18 18 18 18 18 18 18 18 18 18 18
23 25 27 29 28 30 30 31 31 30 30 29 29 28 26 25 25 24 23 23 23 21 21 21 21 20 20 20 19 19 19 19 19 19 19 18 18 18 18 18 18 18 18 18 18 18 18 18 18
24 27 28 28 29 31 31 31 31 31 30 29 29 27 25 24 24 23 23 23 23 22 21 21 21 20 20 20 19 19 19 19 19 18 18 18 18 18 18 18 18 18 18 18 18 18 18 18 18
27 29 28 28 30 31 31 31 31 31 30 29 28 27 25 24 24 23 23 23 23 22 21 21 21 20 20 19 19 19 19 19 18 18 18 18 18 18 18 18 18 18 18 18 18 18 18 18 18
27 28 28 29 30 30 31 31 30 30 30 29 28 27 25 24 23 23 23 23 22 21 21 20 20 20 20 19 19 19 19 18 18 18 18 18 18 18 18 18 18 18 18 17 18 18 18 18 18
27 29 29 29 30 30 31 30 30 29 29 28 28 27 24 23 23 23 23 22 22 21 21 20 20 19 19 19 19 19 19 18 18 18 18 18 17 17 17 17 17 17 17 17 17 17 17 17 17
28 28 28 29 30 30 31 30 29 28 28 28 27 26 24 23 23 23 22 22 22 21 20 20 20 19 19 19 19 19 18 18 18 18 17 17 17 17 17 17 17 17 17 17 17 17 17 17 17
29 28 28 30 31 31 30 30 29 29 28 28 26 25 24 23 23 23 22 22 22 21 20 20 20 19 19 19 19 18 18 18 17 17 17 17 17 17 17 17 17 17 17 17 17 17 17 17 17
30 29 30 30 30 30 30 30 29 29 28 28 26 25 24 23 23 23 22 22 22 21 20 19 19 19 19 18 18 18 18 18 17 17 17 17 17 17 17 17 17 17 17 17 17 17 17 17 17
30 30 30 30 30 30 30 29 29 28 28 27 26 25 24 24 23 23 22 22 21 20 20 20 19 19 19 18 18 18 18 17 17 17 17 17 17 16 16 16 17 17 17 17 17 17 17 16 17
30 30 30 30 30 30 29 29 29 28 28 27 26 25 25 24 23 23 22 22 21 20 20 19 19 18 18 18 18 17 17 17 17 17 17 17 16 16 16 16 16 16 16 16 16 16 16 16 16
30 31 30 30 30 30 29 29 29 28 28 27 26 25 25 24 24 23 22 21 21 20 20 19 19 18 18 18 18 17 17 17 17 17 17 16 16 16 16 16 16 16 16 16 16 16 16 16 16
30 30 30 30 30 30 30 29 29 28 28 27 26 26 25 24 24 23 22 21 21 20 20 19 18 18 18 18 18 17 17 17 17 17 17 16 16 16 16 16 16 16 16 16 16 16 16 16 16
29 29 28 29 30 30 29 28 29 28 28 27 27 26 25 24 23 23 22 21 21 20 19 19 18 18 18 17 17 17 17 17 17 17 17 16 16 16 16 16 16 16 16 16 16 16 16 16 16
28 28 28 29 30 30 29 28 29 29 28 28 27 26 25 24 24 23 22 21 20 20 19 18 18 18 17 17 17 17 17 17 17 16 16 16 16 16 16 16 16 15 15 15 15 15 15 15 15
27 28 29 29 30 30 29 29 29 29 28 28 27 26 25 25 24 23 22 21 20 19 19 18 18 17 17 17 17 17 16 16 16 16 16 16 16 16 16 15 16 15 15 15 15 15 15 15 15
29 29 29 29 30 30 29 29 29 29 29 28 27 27 26 25 24 23 22 21 20 19 18 18 17 17 17 17 17 16 16 16 16 16 16 16 16 16 16 15 15 15 15 15 15 15 15 15 15
29 29 29 29 30 30 29 29 30 29 29 28 27 27 26 25 23 22 21 21 20 19 18 18 17 17 17 17 17 16 16 16 16 16 16 16 16 15 15 15 15 15 15 15 15 15 15 15 15
29 29 29 29 30 30 30 29 29 29 29 28 27 27 26 25 24 22 21 21 20 19 18 18 17 17 17 16 16 16 16 16 16 15 15 15 15 15 15 15 15 15 15 15 15 15 15 15 15
28 30 29 29 29 28 29 27 28 28 28 28 28 27 26 25 24 23 22 21 20 19 18 18 17 17 16 16 16 16 16 15 15 15 15 15 15 15 15 15 15 15 14 14 14 14 15 14 14
29 30 30 29 28 28 28 27 28 28 27 27 27 27 26 25 24 23 22 21 20 19 18 17 17 16 16 16 16 16 15 15 15 15 15 15 15 15 15 15 15 14 14 14 14 14 14 14 14
30 29 29 29 28 26 27 27 27 28 28 28 27 27 26 25 24 23 22 21 20 19 18 17 17 16 16 16 16 15 15 15 15 15 15 15 15 15 14 14 14 14 14 14 14 14 14 14 14
29 27 26 26 26 26 27 27 27 28 28 28 27 27 26 25 24 23 22 21 20 19 18 17 16 16 16 15 15 15 15 15 15 15 15 15 14 14 14 14 14 14 14 14 14 14 14 14 14
28 28 26 24 25 26 27 27 27 28 28 28 27 26 25 24 23 22 22 21 20 19 18 17 16 16 15 15 15 15 15 15 15 15 15 14 14 14 14 14 14 14 14 14 14 14 14 14 14
27 27 28 26 26 25 26 26 27 27 28 27 27 26 25 24 23 22 21 20 19 19 18 17 16 16 15 15 15 15 15 15 15 15 14 14 14 14 14 14 14 14 14 14 14 13 13 13 14
28 28 26 25 24 24 25 25 26 26 26 27 26 26 24 23 23 22 21 20 19 18 18 17 16 16 16 15 15 15 15 15 14 14 14 14 14 14 14 14 14 14 13 13 13 13 13 13 13
28 27 27 26 25 24 23 24 27 26 26 26 26 25 24 23 22 21 21 20 19 18 18 17 16 16 16 15 15 15 15 15 14 14 14 14 14 14 14 14 14 14 14 13 13 13 13 13 14
28 27 27 25 25 25 24 24 26 26 26 26 25 25 24 23 22 21 20 20 19 18 17 17 16 16 16 15 15 15 15 14 14 14 14 14 14 14 14 14 14 14 14 13 13 13 13 14 14

GEFSSGP_850_meantemp_252.txt.gz
Temperature
22 22 22 21 19 19 21 22 24 25 25 26 26 25 24 23 23 21 22 22 22 22 22 21 21 21 21 20 20 20 20 20 20 20 19 19 19 19 19 19 18 18 18 18 18 18 18 18 18
22 22 21 21 19 20 21 23 24 25 26 26 25 25 24 23 23 22 22 22 22 22 22 21 21 21 21 20 20 20 20 20 20 19 19 19 19 19 19 18 18 18 18 18 18 18 18 18 18
22 22 21 19 19 20 22 24 24 25 26 26 25 25 24 23 22 22 22 22 22 22 21 21 21 21 20 20 20 20 20 20 19 19 19 19 19 19 18 18 18 18 18 18 18 18 18 18 18
22 22 21 19 20 22 23 24 25 25 25 25 24 24 23 23 23 23 22 22 22 22 21 21 21 21 20 20 20 20 20 19 19 19 19 19 19 18 18 18 18 18 18 18 18 18 18 18 18
22 22 19 19 21 23 24 25 25 25 25 25 24 23 22 23 23 23 22 22 22 22 21 21 21 20 20 20 19 19 19 19 19 19 19 19 18 18 18 18 18 18 18 18 18 17 17 17 17
22 20 19 20 22 24 25 26 26 25 25 24 23 22 22 22 22 22 22 22 22 21 21 21 20 20 20 20 19 19 19 19 19 19 19 18 18 18 18 18 18 18 18 17 17 17 17 17 17
22 19 20 21 22 24 26 26 26 25 24 24 24 22 22 22 22 22 22 21 21 21 21 20 20 20 20 19 19 19 19 19 18 18 18 18 18 18 18 18 18 17 17 17 17 17 17 17 17
23 19 21 21 23 24 26 26 26 25 25 25 24 22 22 22 22 21 21 21 21 20 20 20 20 20 19 19 19 19 18 18 18 18 18 18 18 18 18 17 17 17 17 17 17 17 17 17 17
24 19 19 21 23 24 25 25 26 26 25 25 24 24 23 22 22 21 21 21 20 20 20 20 20 19 19 19 19 18 18 18 18 18 18 18 17 17 17 17 17 17 17 17 17 17 17 17 17
23 19 21 23 23 24 25 25 26 25 24 24 23 23 23 22 22 21 21 20 20 20 20 20 20 19 19 19 19 18 18 18 18 18 17 17 17 17 17 17 17 17 17 17 17 17 17 17 17
22 21 22 24 25 25 25 26 26 25 23 24 23 23 22 22 22 21 21 21 21 20 20 19 19 19 19 19 19 18 18 18 18 17 17 17 17 17 17 17 17 17 17 17 17 17 17 17 16
22 23 24 25 25 25 25 26 26 25 25 25 25 24 23 22 21 21 21 21 21 20 20 19 19 19 19 19 18 18 18 18 18 17 17 17 17 17 17 17 17 17 17 16 16 16 16 16 16
22 23 25 25 25 25 25 25 25 25 25 25 24 23 23 22 22 21 21 21 20 20 20 19 19 19 19 19 18 18 18 18 17 17 17 17 17 17 16 16 16 16 16 16 16 16 16 16 16
23 24 24 24 25 25 24 25 25 25 25 24 24 23 23 22 22 21 21 21 20 20 20 19 19 19 18 18 18 18 18 17 17 17 17 17 17 16 16 16 16 16 16 16 16 16 16 16 16
24 22 22 23 24 25 24 23 24 25 25 24 23 23 23 22 22 22 21 21 20 20 20 19 19 19 18 18 18 18 18 17 17 17 17 17 16 16 16 16 16 16 16 16 16 16 16 16 16
22 22 21 23 24 24 24 22 24 25 24 23 23 23 22 22 22 22 21 21 21 20 19 19 19 18 18 18 18 17 17 17 17 17 17 17 16 16 16 16 16 16 16 16 16 16 16 16 16
21 21 21 23 24 24 23 22 23 25 24 23 23 23 22 22 22 21 21 21 21 20 19 19 19 18 18 18 17 17 17 17 17 17 17 16 16 16 16 16 16 16 16 16 15 15 15 15 15
20 21 22 22 23 24 23 23 23 24 24 24 23 23 22 22 22 22 21 21 20 20 19 19 19 18 18 17 17 17 17 16 16 16 16 16 16 16 16 16 16 16 16 15 15 15 15 15 15
22 22 22 23 24 24 23 22 23 23 23 23 23 22 22 22 22 21 21 21 20 20 19 19 19 18 18 17 17 17 17 16 16 16 16 16 16 16 16 16 16 16 15 15 15 15 15 15 15
22 22 22 23 24 24 22 22 23 23 23 23 23 22 22 22 21 21 21 20 20 20 19 19 19 18 18 17 17 17 16 16 16 16 16 16 16 16 16 16 16 15 15 15 15 15 15 15 15
23 23 23 23 23 23 23 22 22 23 23 23 23 22 22 21 21 20 20 20 20 20 19 19 18 18 18 17 17 16 16 16 16 16 16 16 15 15 15 15 15 15 15 15 15 15 15 15 14
23 24 24 24 22 21 22 20 21 21 21 22 22 22 22 21 21 21 20 20 20 19 19 19 18 18 17 17 17 16 16 16 16 16 16 15 15 15 15 15 15 15 15 15 14 14 14 14 14
24 24 24 23 22 20 21 20 20 21 21 20 20 21 21 21 21 21 20 20 20 19 19 19 18 18 17 17 16 16 16 16 16 15 15 15 15 15 15 15 15 15 15 14 14 14 14 14 14
25 23 22 20 19 20 21 20 20 20 21 20 20 21 21 21 21 20 20 20 19 19 19 18 18 17 17 16 16 16 16 16 15 15 15 15 15 15 15 15 14 14 14 14 14 14 14 14 14
23 20 19 19 18 19 21 20 19 20 21 21 20 21 21 21 20 20 20 19 19 19 18 18 17 17 17 16 16 16 16 16 15 15 15 15 15 15 15 14 14 14 14 14 14 14 14 14 14
23 21 19 19 19 19 20 20 20 21 21 21 21 21 21 20 20 20 19 19 19 18 18 18 17 17 16 16 16 16 16 15 15 15 15 15 15 15 15 14 14 14 14 14 14 14 14 14 14
23 21 20 19 19 19 19 20 20 20 20 20 20 20 20 20 20 19 19 19 19 18 18 18 17 17 16 16 16 16 15 15 15 15 15 15 15 15 14 14 14 14 14 14 14 14 14 13 13
22 21 18 18 19 19 19 20 19 19 20 19 19 19 19 19 19 19 19 19 18 18 18 17 17 17 16 16 16 15 15 15 15 15 15 14 14 14 14 14 14 14 14 14 14 14 13 13 13
22 21 19 17 17 18 18 18 20 18 18 18 18 19 19 19 19 19 19 18 18 18 17 17 17 16 16 16 16 15 15 15 15 15 14 14 14 14 14 14 14 14 14 14 13 13 13 13 13
22 21 19 18 18 17 17 18 19 18 18 18 18 19 19 19 19 19 19 18 18 17 17 17 17 16 16 16 15 15 15 15 14 14 14 14 14 14 14 14 14 14 14 14 13 13 13 13 13

GEFSSGP_850_meantemp_258.txt.gz
Temperature
21 21 20 20 18 17 20 21 21 22 22 23 23 23 22 22 21 21 22 22 21 21 21 20 20 20 20 20 19 19 19 19 19 19 19 19 19 19 19 19 18 18 18 18 18 18 18 18 18
21 21 20 20 18 19 20 21 22 22 23 23 23 23 22 22 22 22 22 21 21 21 21 20 20 20 20 19 19 19 19 19 19 19 19 19 19 19 18 18 18 18 18 18 18 18 18 18 18
21 20 20 17 18 19 21 22 22 23 23 23 23 22 22 22 22 22 22 21 21 21 21 20 20 20 20 19 19 19 19 19 19 19 19 19 19 18 18 18 18 18 18 18 18 18 18 18 17
21 20 20 17 20 20 20 22 22 22 23 23 23 22 22 22 22 22 22 21 21 21 21 20 20 19 19 19 19 19 19 19 19 19 19 19 18 18 18 18 18 18 18 18 18 18 17 17 17
21 20 18 18 19 20 21 22 23 22 23 23 22 21 21 21 22 22 22 21 21 21 20 20 20 19 19 19 19 19 19 19 19 19 18 18 18 18 18 18 18 18 18 17 17 17 17 17 17
21 18 17 18 20 21 22 23 23 22 22 23 22 21 21 21 22 22 21 21 21 21 20 20 20 19 19 19 19 19 19 19 19 18 18 18 18 18 18 18 18 17 17 17 17 17 17 17 17
20 17 18 19 20 21 23 24 23 22 22 23 22 21 21 21 21 21 21 21 20 20 20 20 19 19 19 19 19 19 19 19 18 18 18 18 18 18 18 17 17 17 17 17 17 17 17 17 17
21 17 19 19 20 21 23 23 24 23 23 23 23 21 21 21 21 21 20 20 20 20 19 19 19 19 19 19 19 19 19 18 18 18 18 18 18 17 17 17 17 17 17 17 17 17 17 16 16
21 17 18 19 20 21 22 22 23 23 23 23 22 22 22 22 21 20 20 19 19 19 19 19 19 19 19 19 19 19 18 18 18 18 18 17 17 17 17 17 17 17 17 17 16 16 16 16 16
20 17 19 20 21 21 22 22 23 23 22 22 22 22 22 21 21 20 20 20 19 19 19 19 19 19 19 19 18 18 18 18 18 18 18 17 17 17 17 17 17 17 17 16 16 16 16 16 16
19 19 19 21 22 22 22 22 23 22 21 22 22 22 21 21 20 20 20 20 20 20 19 19 19 19 18 18 18 18 18 18 18 17 17 17 17 17 17 17 17 16 16 16 16 16 16 16 16
19 19 21 22 23 22 22 22 22 22 23 24 24 23 22 21 21 21 21 20 20 19 19 19 19 18 18 18 18 18 18 18 17 17 17 17 17 17 17 16 16 16 16 16 16 16 16 16 16
19 20 21 22 22 22 22 22 22 22 24 24 23 22 22 22 21 21 21 20 20 20 19 19 19 18 18 18 18 18 18 18 17 17 17 17 17 17 16 16 16 16 16 16 16 16 16 16 16
20 20 21 21 22 22 21 21 21 22 23 23 22 22 22 22 22 21 20 20 20 20 19 19 19 18 18 18 18 18 18 17 17 17 17 17 16 16 16 16 16 16 16 16 16 16 16 16 16
21 20 20 20 21 22 22 21 21 23 23 22 22 21 21 21 21 21 21 21 20 20 20 19 19 18 18 18 18 18 18 17 17 17 17 17 16 16 16 16 16 16 16 16 16 15 15 15 15
20 19 19 20 21 22 22 21 21 23 22 21 21 21 21 21 21 21 21 21 20 20 19 19 18 18 18 18 18 17 17 17 17 17 16 16 16 16 16 16 16 15 15 15 15 15 15 15 15
18 18 19 20 21 21 21 20 21 22 21 20 20 20 20 20 20 20 20 20 20 20 19 19 18 18 18 18 17 17 17 17 16 16 16 16 16 16 16 15 15 15 15 15 15 15 15 15 15
18 19 19 20 20 20 20 20 20 21 20 20 20 20 20 20 21 21 20 20 20 19 19 19 18 18 18 17 17 17 17 16 16 16 16 16 16 16 15 15 15 15 15 15 15 15 15 15 15
19 19 19 20 21 20 19 20 20 20 20 19 19 19 20 20 21 20 20 20 20 19 19 19 18 18 17 17 17 17 16 16 16 16 16 16 16 16 15 15 15 15 15 15 15 15 15 15 15
19 19 19 20 20 21 19 19 19 19 19 19 19 19 20 20 20 20 20 20 19 19 19 18 18 18 18 17 17 17 16 16 16 16 16 15 15 15 15 15 15 15 15 15 15 15 15 15 14
19 19 19 20 20 20 20 19 19 19 19 20 20 20 20 20 20 20 20 20 19 19 19 18 18 18 17 17 17 16 16 16 15 15 15 15 15 15 15 15 15 15 15 15 15 15 14 14 14
19 20 20 20 19 18 19 18 19 19 18 18 19 19 19 20 20 20 20 19 19 19 19 18 18 17 17 17 17 16 16 16 16 15 15 15 15 15 15 15 15 15 15 15 15 14 14 14 14
20 21 20 20 18 18 18 18 18 18 18 18 18 18 19 19 19 19 19 19 19 19 18 18 17 17 17 17 16 16 16 16 15 15 15 15 15 15 15 15 15 15 14 14 14 14 14 14 14
21 20 19 17 16 18 18 18 18 17 18 18 18 18 18 18 19 19 19 19 18 18 18 18 17 17 17 16 16 16 16 15 15 15 15 15 15 15 15 14 14 14 14 14 14 14 14 14 14
20 18 17 18 16 17 18 18 17 18 18 18 17 18 18 18 18 18 18 18 18 18 18 17 17 17 16 16 16 15 15 15 15 15 15 15 15 15 14 14 14 14 14 14 14 14 14 13 13
19 18 17 18 17 17 18 18 17 18 18 18 18 18 17 17 18 18 18 18 18 18 18 17 17 17 16 16 15 15 15 15 15 15 15 15 15 15 14 14 14 14 14 14 14 14 13 13 13
19 18 18 16 17 17 17 17 18 18 17 17 17 17 16 17 17 18 18 18 18 18 18 17 17 17 16 16 15 15 15 15 15 15 14 14 14 14 14 14 14 14 14 14 14 13 13 13 13
19 17 15 16 17 17 18 17 17 18 17 16 16 16 16 16 17 17 17 18 17 18 17 17 17 16 16 16 15 15 15 15 14 14 14 14 14 14 14 14 14 14 14 13 13 13 13 13 13
18 17 16 14 15 16 17 17 17 17 17 16 15 16 16 16 16 17 17 17 17 17 17 17 16 16 16 15 15 15 15 15 14 14 14 14 14 14 14 14 14 14 13 13 13 13 13 13 13
19 17 16 16 16 15 16 16 17 16 16 15 16 16 16 16 16 16 17 17 17 16 16 16 16 16 15 15 15 15 15 15 14 14 14 14 14 14 14 14 14 13 13 13 13 13 13 13 13

GEFSSGP_850_meantemp_264.txt.gz
Temperature
21 21 20 22 27 30 30 30 30 29 29 28 27 27 28 28 27 26 22 21 21 21 20 20 20 20 19 19 19 19 19 19 19 19 19 19 19 19 19 18 18 18 18 18 18 18 18 18 18
21 20 21 25 29 29 29 30 29 29 28 27 27 27 27 27 25 23 22 21 21 20 20 20 20 20 19 19 19 19 19 19 19 19 19 19 19 19 18 18 18 18 18 18 18 18 18 18 18
21 21 24 29 29 29 29 30 29 28 27 27 27 27 26 26 24 22 21 21 21 20 20 20 20 20 19 19 19 19 19 19 19 19 19 19 19 19 18 18 18 18 18 18 18 18 18 18 18
21 23 26 29 29 30 30 29 29 29 28 27 27 27 25 23 22 22 21 21 21 20 20 19 20 19 19 19 19 19 19 19 19 19 19 19 18 18 18 18 18 18 18 18 18 18 18 18 18
22 26 29 29 29 30 30 29 28 29 28 27 27 27 25 22 22 21 21 21 21 20 20 19 19 19 19 19 19 19 19 19 19 19 18 18 18 18 18 18 18 18 18 18 18 18 18 17 17
25 28 29 29 29 29 29 28 28 29 28 27 27 27 25 22 21 21 21 21 20 20 19 19 19 19 19 19 19 19 19 19 18 18 18 18 18 18 18 18 18 18 18 18 18 17 17 17 17
27 29 29 29 29 29 29 28 28 29 29 28 27 27 25 22 21 21 21 20 20 20 19 19 19 19 19 18 18 18 18 18 18 18 18 18 18 18 18 18 18 18 18 17 17 17 17 17 17
26 29 29 29 29 29 29 28 28 28 28 26 26 27 26 23 21 21 20 20 20 19 19 19 19 18 18 18 18 18 18 18 18 18 18 18 18 18 18 17 18 18 17 17 17 17 17 17 17
25 28 29 29 29 29 28 28 28 27 27 26 26 26 25 22 21 21 20 20 20 19 19 19 19 18 18 18 18 18 18 18 18 18 18 17 17 17 17 17 17 17 17 17 17 17 17 17 17
26 28 29 29 29 29 28 28 27 27 27 27 26 24 22 21 21 21 21 21 20 19 19 19 19 18 18 18 17 17 17 17 17 17 17 17 17 17 17 17 17 17 17 17 17 17 17 17 16
27 28 29 29 28 28 28 28 27 28 28 28 27 25 23 22 21 22 21 21 20 20 19 19 18 18 18 17 17 17 17 17 17 17 17 17 16 16 16 16 16 16 16 16 16 16 16 16 16
27 28 27 28 27 27 27 28 27 27 28 27 26 25 23 22 22 22 22 21 20 19 19 18 18 18 18 17 17 17 17 17 17 17 17 17 16 16 16 16 16 16 16 16 16 16 16 16 16
27 27 27 27 26 27 27 27 27 27 26 25 25 24 23 23 22 22 21 21 20 19 19 18 18 18 17 17 17 17 17 17 17 17 17 17 16 16 16 16 16 16 16 16 16 16 16 16 16
27 27 27 27 27 27 27 27 27 27 26 25 25 24 24 23 23 22 21 20 20 19 18 18 18 18 18 18 18 17 17 17 17 17 17 17 16 16 16 16 16 16 16 16 16 15 15 15 15
26 27 27 28 27 27 27 27 28 27 26 25 25 24 24 23 22 22 21 20 19 19 18 18 18 18 18 17 17 17 17 17 17 17 17 17 16 16 16 16 16 16 15 15 15 15 15 15 15
27 27 27 28 28 27 27 28 29 27 26 26 25 24 23 23 22 21 21 20 20 19 18 18 18 18 18 17 17 17 17 17 16 17 17 17 16 16 16 16 15 15 15 15 15 15 15 15 15
27 27 27 28 28 28 27 28 28 26 26 26 25 24 24 23 22 21 21 20 19 19 19 18 18 18 18 17 17 17 17 16 16 16 16 16 16 16 16 16 15 15 15 15 15 15 15 15 15
27 27 27 27 28 27 27 28 28 26 26 26 25 24 24 23 22 21 20 20 19 19 19 18 18 18 17 17 17 16 16 16 16 16 16 16 16 16 16 16 16 15 15 15 15 15 15 15 15
27 27 27 28 28 27 27 27 28 27 26 26 25 25 24 23 22 21 20 19 19 19 19 18 18 18 17 17 16 16 16 16 16 16 16 16 16 16 16 15 15 15 15 15 15 15 15 15 15
26 26 27 27 27 27 27 27 27 27 26 26 25 24 24 23 22 21 20 19 19 19 18 18 18 17 17 17 17 16 16 16 16 16 16 16 16 16 16 15 15 15 15 15 15 15 15 15 15
26 26 27 27 27 27 27 27 27 27 26 25 25 24 24 23 22 21 20 19 19 18 18 18 18 17 17 17 16 16 16 16 15 16 16 16 16 15 15 15 15 15 15 15 15 15 15 15 15
26 27 27 26 26 27 27 26 27 27 26 26 25 24 23 22 22 21 20 19 19 18 18 18 18 17 17 17 16 16 16 16 16 16 16 15 15 15 15 15 15 15 15 15 15 15 14 14 15
27 27 27 26 26 26 27 27 27 27 26 26 25 24 23 22 22 21 20 19 19 18 18 17 17 17 17 16 16 16 16 16 16 15 15 15 15 15 15 15 15 15 15 14 14 14 14 14 14
27 26 26 26 26 25 26 26 26 27 26 26 25 23 22 22 21 20 20 19 18 18 17 17 17 17 16 16 16 16 16 16 15 15 15 15 15 15 15 14 14 15 14 14 14 14 14 14 14
26 25 25 25 25 26 26 26 26 26 26 25 25 23 22 21 21 20 19 19 18 17 17 17 16 16 16 16 16 16 16 15 15 15 15 15 15 15 14 14 14 14 14 14 14 14 14 14 14
25 25 24 24 25 26 26 26 26 26 25 24 23 22 21 21 20 20 19 18 18 17 17 17 16 16 16 16 16 15 15 15 15 15 15 15 15 15 14 14 14 14 14 14 14 14 14 14 14
25 25 26 25 26 25 26 26 25 25 24 24 23 22 21 20 19 19 18 18 17 17 16 16 16 16 16 15 15 15 15 15 14 14 14 14 14 14 14 14 14 14 14 14 14 14 14 14 14
26 26 25 25 24 24 25 25 25 24 24 24 23 22 21 19 19 18 18 17 17 16 16 16 16 15 15 15 15 15 15 14 14 14 14 14 14 14 14 14 14 14 14 14 14 13 14 14 13
24 25 25 25 25 24 24 25 25 24 23 23 23 22 20 19 18 18 17 17 16 16 16 15 15 15 15 15 15 15 14 14 14 14 14 14 14 14 14 14 14 14 14 14 13 13 13 13 13
25 25 24 24 24 24 24 24 24 23 23 22 22 21 20 19 18 17 17 16 16 16 16 15 15 15 15 15 15 15 14 14 14 14 14 14 14 14 14 14 13 13 13 13 13 13 13 13 13